Simultaneous Nadir Overpasses (SNOs) Predictions

Prediction of SNOs between GOES-16 and NOAA-20 Satellite Orbit:

Table of predicted SNOs for the next 14.0 days since TLE Epoch: 12/17/2022
Index Date Time (GOES-16) GOES-16 Lat,Lon NOAA-20 Lat,Lon Distance(km) Time Diff (sec)
1 12/17/2022 18:22:45 0.02, -75.20 0.26, -74.18 116.71 80
2 12/19/2022 06:41:54 -0.02, -75.20 0.90, -79.45 484.05 80
3 12/20/2022 06:25:49 -0.02, -75.20 -0.08, -74.92 32.77 80
4 12/22/2022 18:26:22 0.01, -75.22 -0.12, -75.69 53.83 80
5 12/23/2022 18:10:19 -0.00, -75.23 0.92, -71.16 463.16 80
6 12/25/2022 06:32:07 0.00, -75.23 0.29, -76.43 137.16 80
7 12/26/2022 06:10:44 0.01, -75.24 -0.75, -71.91 379.97 80
8 12/27/2022 18:32:41 -0.00, -75.26 -0.42, -77.22 222.64 80
9 12/28/2022 18:16:37 -0.00, -75.27 0.56, -72.68 295.18 80
10 12/30/2022 06:38:26 -0.00, -75.30 0.58, -77.96 303.21 80
